Weather History for Billings, MT

Change the Weather History Date:

Sunday, March 4, 2012

  Actual Average Record
Temperature  
Mean Temperature 49 °F 34 °F  
Max Temperature 62 °F 45 °F 69 °F (1987)
Min Temperature 35 °F 24 °F -19 °F (1989)
Degree Days  
Heating Degree Days 16 31  
Month to date heating degree days 104 124  
Since 1 July heating degree days 4612 5089  
Cooling Degree Days 0 0  
Month to date cooling degree days 0 0  
Year to date cooling degree days 0 0  
Moisture  
Dew Point 23 °F    
Average Humidity 50    
Maximum Humidity 82    
Minimum Humidity 17    
Precipitation  
Precipitation 0.00 in 0.02 in 0.28 in (1957)
Month to date precipitation T 0.09  
Year to date precipitation 0.85 1.05  
Snow  
Snow 0.00 in 0.30 in 7.50 in (1998)
Month to date snowfall T 1.1  
Since 1 July snowfall 28.8 35.6  
Snow Depth 0.00 in    
Sea Level Pressure  
Sea Level Pressure 29.98 in    
Wind  
Wind Speed 13 mph (WNW)    
Max Wind Speed 28 mph    
Max Gust Speed 33 mph    
Visibility 10 miles    
Events      
T = Trace of Precipitation, MM = Missing Value Source: NWS Daily Summary

Daily Weather History Graph

Daily Weather History Graph

Search for Another Location

Airport:

Trip Planner

Search our weather history database for the weather conditions in past years. The results will help you decide how hot, cold, wet, or windy it might be!

Date:

Astronomy

Mar. 04, 2012 Rise Set
Actual Time 6:46 AM MST 6:05 PM MST
Civil Twilight 6:16 AM MST 6:35 PM MST
Nautical Twilight 5:42 AM MST 7:10 PM MST
Astronomical Twilight 5:07 AM MST 7:44 PM MST
Moon 2:11 PM MST (3/4) 4:19 AM MST (3/4)
Length of Visible Light 12h 19m
Length of Day
11h 19m
Waxing Gibbous, 84% of the Moon is Illuminated
Mar 4
Waxing Gibbous
Mar 8
Full
Mar 14
Last Quarter
Mar 22
New
Mar 30
First Quarter

Hourly Weather History & Observations

Time (MST) Temp. Windchill Dew Point Humidity Pressure Visibility Wind Dir Wind Speed Gust Speed Precip Events Conditions
12:53 AM 48.9 °F - 23.0 °F 36% 29.91 in 10.0 mi WNW 20.7 mph - N/A   Clear
1:53 AM 46.9 °F - 23.0 °F 39% 29.94 in 10.0 mi WNW 13.8 mph - N/A   Partly Cloudy
2:53 AM 48.0 °F - 23.0 °F 37% 29.93 in 10.0 mi West 16.1 mph 26.5 mph N/A   Scattered Clouds
3:53 AM 46.9 °F - 23.0 °F 39% 29.95 in 10.0 mi West 15.0 mph - N/A   Mostly Cloudy
4:53 AM 46.4 °F 41.9 °F 23.0 °F 40% 29.98 in 10.0 mi West 9.2 mph - N/A   Mostly Cloudy
5:53 AM 46.9 °F - 23.0 °F 39% 30.01 in 10.0 mi WNW 13.8 mph - N/A   Overcast
6:53 AM 45.0 °F 40.6 °F 23.0 °F 42% 30.05 in 10.0 mi West 8.1 mph - N/A   Mostly Cloudy
7:53 AM 35.1 °F 25.9 °F 30.0 °F 82% 30.10 in 10.0 mi NE 13.8 mph - N/A   Mostly Cloudy
8:53 AM 36.0 °F 27.5 °F 28.9 °F 76% 30.11 in 10.0 mi NE 12.7 mph - N/A   Partly Cloudy
9:53 AM 39.0 °F 32.3 °F 28.9 °F 67% 30.12 in 10.0 mi ENE 10.4 mph - N/A   Partly Cloudy
10:53 AM 43.0 °F 39.5 °F 28.9 °F 58% 30.09 in 10.0 mi NE 5.8 mph - N/A   Partly Cloudy
11:53 AM 46.9 °F - 28.0 °F 48% 30.06 in 10.0 mi Calm Calm - N/A   Partly Cloudy
12:53 PM 52.0 °F - 28.0 °F 40% 30.01 in 10.0 mi Variable 4.6 mph - N/A   Partly Cloudy
1:53 PM 55.9 °F - 26.1 °F 32% 29.98 in 10.0 mi East 3.5 mph - N/A   Partly Cloudy
2:53 PM 59.0 °F - 24.1 °F 26% 29.95 in 10.0 mi NE 6.9 mph - N/A   Partly Cloudy
3:53 PM 61.0 °F - 16.0 °F 17% 29.94 in 10.0 mi WNW 18.4 mph 25.3 mph N/A   Partly Cloudy
4:53 PM 59.0 °F - 17.1 °F 20% 29.91 in 10.0 mi WNW 21.9 mph 29.9 mph N/A   Clear
5:53 PM 55.0 °F - 16.0 °F 22% 29.91 in 10.0 mi West 15.0 mph - N/A   Partly Cloudy
6:53 PM 55.0 °F - 17.1 °F 23% 29.91 in 10.0 mi WSW 17.3 mph 24.2 mph N/A   Partly Cloudy
7:53 PM 51.8 °F - 17.6 °F 26% 29.91 in 10.0 mi West 17.3 mph - N/A   Clear
8:53 PM 48.0 °F - 19.0 °F 32% 29.94 in 10.0 mi WSW 17.3 mph 23.0 mph N/A   Clear
9:53 PM 46.9 °F - 18.0 °F 32% 29.93 in 10.0 mi WSW 16.1 mph - N/A   Clear
10:53 PM 46.0 °F 38.5 °F 19.0 °F 34% 29.90 in 10.0 mi WSW 19.6 mph - N/A   Clear
11:53 PM 46.0 °F 39.3 °F 19.0 °F 34% 29.88 in 10.0 mi WSW 16.1 mph - N/A   Clear